Wind_Speed
2 6 2 4 2 3 1 2 4 1 2 4 6 9 9 4 3 6 9 8 6 5 4 3 3 2 2 3 3 4 5 7 7 7 7 8 8 9 9 9 9 9 9 9
4 2 4 3 1 1 1 4 2 0 1 5 9 14 8 4 5 7 8 7 6 6 5 4 4 4 4 4 4 3 4 5 6 6 6 7 8 7 9 10 10 10 9 9
2 6 3 2 1 1 1 5 4 5 10 6 9 8 8 7 7 6 5 6 5 4 4 3 3 4 4 4 4 4 4 5 5 6 6 7 8 8 8 9 11 10 11 10
5 3 1 2 1 3 3 3 4 7 7 4 3 4 10 11 9 9 8 7 5 5 4 4 4 6 6 5 4 4 5 6 7 7 7 8 8 10 10 11 11 13 11 11
3 2 1 2 3 3 5 3 5 4 7 7 7 4 6 11 10 12 10 7 5 4 4 5 7 7 7 7 7 7 7 8 9 9 9 8 8 9 10 11 13 12 11 11
4 1 2 4 2 2 1 4 4 2 2 4 5 3 7 7 12 13 10 7 6 5 5 6 5 5 6 6 6 6 6 7 8 8 8 9 9 10 10 12 12 14 14 13
4 3 3 1 2 3 2 4 2 2 3 2 3 4 7 6 3 4 9 7 6 5 5 4 4 4 4 4 4 4 5 7 7 7 7 8 8 8 9 10 11 13 13 13
3 3 1 2 3 3 3 3 2 4 4 6 3 6 2 6 4 6 6 6 5 5 3 3 2 2 2 3 4 3 4 5 6 6 7 7 8 9 10 11 12 13 14 15
2 3 4 3 0 2 3 3 2 4 3 4 6 5 7 6 8 9 9 8 7 5 4 3 2 2 3 2 1 3 4 4 5 6 7 7 7 8 10 11 11 12 13 14
2 3 1 3 1 1 3 1 3 3 3 5 7 7 6 6 6 6 7 7 5 4 3 2 4 6 6 5 3 2 2 4 6 8 9 10 10 11 12 13 14 14 15 16
0 1 4 2 7 4 3 2 3 3 4 4 5 2 5 5 1 9 9 8 3 2 5 7 8 9 7 6 5 4 4 5 6 8 10 12 13 14 13 14 14 15 16 16
2 3 5 3 4 3 3 5 8 5 5 4 4 6 2 4 4 5 6 7 4 8 11 12 14 12 8 8 7 5 5 7 8 10 12 13 15 15 15 15 16 16 18 17
4 4 2 4 3 2 5 7 8 2 3 8 9 3 4 8 5 6 5 4 8 13 14 12 10 8 9 9 8 8 8 10 11 12 14 16 19 19 18 18 18 18 18 18
3 2 7 9 6 1 5 8 11 11 4 13 16 22 12 11 7 11 9 9 10 10 9 8 7 6 8 9 12 13 14 14 14 15 16 18 19 20 21 22 20 19 19 19
3 4 10 15 16 15 16 16 15 15 18 14 20 21 17 17 12 8 6 7 8 8 8 8 8 12 15 18 20 20 20 20 20 20 19 20 21 20 21 20 20 21 19 19
4 3 1 5 14 17 20 18 21 22 23 25 24 24 7 6 5 5 8 11 12 10 10 11 13 16 16 21 22 24 25 26 25 24 22 23 22 21 21 21 20 20 21 20
5 3 2 6 3 7 10 18 21 18 19 15 14 4 5 4 7 9 11 13 13 12 13 16 17 23 25 28 29 28 24 24 26 23 24 23 22 20 22 22 21 22 23 22
6 3 3 5 3 7 3 4 1 5 3 2 4 1 4 6 9 10 13 14 12 13 18 20 23 25 28 30 29 26 26 26 24 24 24 22 21 21 22 22 23 22 21 21
10 9 4 4 8 14 12 4 1 2 4 2 2 3 7 11 15 13 9 15 16 17 24 26 28 29 30 30 31 31 28 29 24 25 24 22 21 21 22 23 23 23 22 22
4 11 7 5 5 6 5 6 3 1 10 5 3 7 11 13 13 13 17 18 20 25 26 26 29 29 29 30 30 28 27 28 21 24 22 20 22 23 24 24 24 24 23 25
4 5 13 12 9 7 6 4 2 5 3 3 8 11 13 12 11 18 15 15 19 21 23 24 24 23 25 26 25 24 25 20 23 21 22 23 25 25 25 25 25 25 25 25
8 7 5 7 9 13 5 2 3 9 11 11 12 13 14 15 15 15 15 15 19 21 23 25 23 24 25 24 24 22 22 24 24 23 24 26 27 27 26 25 27 26 25 25
4 5 3 6 1 3 2 5 4 7 11 12 14 15 15 15 16 17 16 17 21 24 23 26 26 27 28 27 26 25 25 25 25 25 27 27 28 28 27 26 27 26 24 23
4 1 3 3 2 7 12 13 12 10 12 15 14 15 16 18 18 19 17 16 19 23 25 28 28 28 28 29 30 29 29 27 27 27 27 28 28 28 28 26 26 25 25 23
2 5 3 7 10 10 8 8 11 15 15 17 18 19 18 18 18 18 16 17 22 26 29 30 28 28 28 31 32 32 30 30 28 28 28 27 26 27 28 28 27 27 29 27
5 7 7 7 5 7 10 10 13 15 17 18 18 18 20 21 18 20 16 24 27 28 30 30 31 31 31 30 30 31 31 29 28 27 26 25 27 27 25 25 27 30 31 33
Wind_Direction
161 222 202 73 22 13 15 282 279 109 59 297 254 276 285 352 237 177 156 152 148 132 124 110 92 71 44 39 38 20 14 7 9 2 351 340 340 331 327 329 325 327 327 329
195 172 100 85 23 360 342 292 271 194 87 300 294 285 296 181 125 146 153 143 154 154 143 118 109 86 71 63 46 26 18 13 15 3 344 332 326 320 315 316 323 325 323 317
190 98 128 233 157 273 63 312 11 321 319 245 296 252 164 169 161 151 156 139 148 157 140 114 113 83 60 40 30 25 21 18 12 353 340 336 324 313 317 325 322 323 322 320
76 115 195 183 136 320 250 33 330 315 326 307 1 297 185 167 179 184 165 169 165 151 127 104 88 64 45 38 38 33 32 24 12 6 355 344 332 327 326 321 320 321 322 321
95 164 171 206 53 339 51 353 317 313 292 312 184 247 112 168 197 193 181 168 152 129 115 98 82 72 61 61 61 58 55 49 41 36 28 14 0 346 338 337 333 335 333 330
91 77 341 35 88 30 88 276 258 276 274 251 130 240 182 180 217 192 173 172 146 125 113 98 93 88 73 68 62 56 54 47 39 36 29 22 8 355 350 348 344 341 337 336
155 135 115 337 232 162 264 285 299 233 215 288 95 262 285 84 56 185 168 162 141 135 128 122 107 86 70 65 57 43 43 47 36 30 27 18 3 350 345 345 337 334 332 332
205 193 163 28 34 7 4 339 301 281 311 334 155 244 99 72 93 97 131 135 133 126 122 108 96 100 79 54 43 32 33 41 27 16 3 357 353 345 339 336 330 326 326 324
283 151 120 62 46 296 128 217 62 288 204 260 243 220 140 164 165 166 159 161 153 157 162 162 175 200 211 188 87 15 3 359 350 346 341 336 339 337 328 324 321 317 317 317
79 254 164 110 231 101 272 78 194 205 256 254 224 242 271 191 189 187 177 169 130 74 36 291 247 234 227 217 210 248 312 324 331 335 333 329 327 327 324 321 318 316 315 318
307 272 116 174 203 194 152 212 225 301 282 289 305 293 47 76 187 206 208 178 154 345 332 318 280 259 248 238 239 267 292 310 318 325 324 322 321 320 316 313 311 310 310 311
89 320 264 289 74 359 300 250 234 230 185 238 282 277 79 60 53 351 266 180 264 293 306 311 294 283 255 247 248 262 288 304 313 316 315 312 309 308 305 304 304 304 303 304
162 181 251 193 170 180 238 216 234 222 317 247 254 262 135 135 128 98 349 290 282 311 323 315 296 267 257 261 271 284 295 298 302 302 306 310 308 305 303 302 299 298 295 298
184 254 246 262 334 122 210 216 221 215 211 258 241 265 241 243 300 3 353 332 324 324 330 334 321 292 272 277 281 288 293 297 298 302 298 294 296 300 301 302 298 294 293 294
212 212 255 265 278 287 270 263 249 226 240 255 273 276 296 320 353 355 9 351 322 318 317 319 313 309 299 299 294 287 286 290 294 291 289 291 294 293 293 293 294 292 290 292
189 232 73 262 263 262 269 268 259 252 256 261 272 277 9 43 32 7 344 327 317 312 314 319 313 305 299 288 288 287 287 284 289 290 290 292 293 291 290 289 287 287 289 291
193 194 207 270 88 310 275 249 243 255 254 255 267 342 6 335 331 328 322 311 308 306 310 309 310 307 307 305 301 287 286 293 290 288 287 287 286 284 285 287 288 287 288 288
215 193 245 277 303 250 84 65 318 267 358 342 270 308 326 312 307 309 297 290 302 318 317 311 306 306 302 299 297 300 299 293 291 287 285 285 284 284 286 287 284 285 286 286
231 235 244 251 237 286 289 108 1 307 196 167 260 287 314 318 313 294 320 347 324 312 308 305 304 302 303 301 299 293 290 289 289 290 287 289 290 286 285 282 283 286 286 284
222 231 221 213 257 276 92 105 55 291 276 118 333 310 316 321 306 308 338 320 311 307 306 306 306 307 306 303 301 300 294 290 290 289 296 295 289 283 280 280 282 282 281 279
156 197 216 226 243 265 113 98 86 254 13 307 306 299 302 295 295 307 314 308 307 308 308 309 307 301 304 309 306 298 294 290 287 291 289 284 283 282 279 277 277 277 278 279
184 189 198 229 249 256 96 140 288 351 320 311 311 308 300 295 298 303 306 310 310 308 308 308 305 302 303 301 299 291 285 282 286 291 284 282 283 283 280 275 275 275 274 277
227 236 247 219 40 97 257 297 327 299 299 305 304 302 292 289 289 293 297 298 298 297 298 300 295 297 296 292 289 285 283 283 284 284 282 283 282 279 278 274 271 272 271 269
214 258 245 281 182 321 332 325 315 325 310 308 301 295 290 287 288 290 291 291 293 293 295 298 297 294 292 293 291 286 287 288 288 284 282 279 279 281 282 279 275 271 269 265
16 162 227 274 283 287 283 314 313 309 305 298 293 290 288 287 287 287 286 291 293 292 293 293 292 290 290 290 289 286 288 290 288 289 287 283 280 277 275 274 273 271 269 269
197 233 232 259 311 293 291 302 302 295 294 292 291 288 286 284 281 286 289 289 288 291 295 294 291 289 288 289 290 287 285 289 290 289 285 279 279 280 278 277 278 274 272 273
Height
794 792 788 797 802 799 795 795 795 792 806 807 792 791 787 792 795 791 792 797 803 808 811 811 812 812 812 811 811 811 811 810 808 808 807 806 805 804 803 803 803 802 800 798
796 791 807 808 808 804 799 796 790 794 806 806 790 789 782 793 794 792 794 799 805 807 808 809 810 811 811 811 811 811 810 809 808 807 807 806 804 803 803 802 801 801 800 798
790 806 811 810 808 802 800 800 802 809 802 792 799 781 793 795 796 798 799 802 805 807 806 809 809 810 811 811 812 811 811 809 808 807 806 805 804 802 801 800 799 798 798 798
804 813 812 810 807 808 803 814 815 813 807 795 798 786 784 792 796 796 799 801 805 807 809 810 810 811 812 813 812 812 811 810 809 808 807 806 805 804 803 801 798 796 795 794
810 814 814 810 811 813 815 820 818 816 811 807 796 805 777 783 793 795 796 801 806 808 809 811 812 814 815 814 814 813 812 810 809 808 808 807 807 806 804 802 799 796 794 793
814 818 816 815 818 818 820 816 814 815 810 813 785 798 774 786 783 785 796 802 807 809 812 813 815 816 817 816 816 815 813 812 811 810 809 808 807 806 804 802 800 798 795 793
812 814 818 819 815 818 815 810 809 810 820 798 800 802 776 781 786 782 796 803 807 809 811 813 815 816 817 817 816 816 815 812 812 811 809 808 807 806 804 802 800 798 795 792
804 811 815 821 819 819 814 816 818 828 803 795 809 796 779 788 793 794 798 803 808 810 813 814 816 817 818 817 817 817 815 813 812 811 810 809 808 807 804 802 800 798 796 793
800 806 823 824 822 823 819 819 822 820 823 820 785 775 792 792 794 795 799 801 804 806 808 811 813 814 814 815 815 816 815 814 813 811 809 808 806 804 803 801 799 796 794 791
806 809 818 826 826 827 822 821 822 823 829 808 776 779 774 790 793 796 801 802 808 810 811 813 813 813 814 814 813 813 813 813 812 812 810 808 805 802 801 799 798 796 793 790
809 811 822 824 820 810 827 822 823 824 817 809 801 780 782 789 789 794 796 800 806 810 810 809 809 810 812 812 813 812 811 811 810 809 809 808 806 803 799 797 795 793 790 788
812 810 813 805 822 823 820 812 810 815 812 811 817 797 789 794 794 797 792 799 807 810 809 807 807 806 808 810 810 809 809 809 809 808 806 805 803 800 797 794 791 789 788 785
812 815 821 808 824 825 823 814 814 820 826 814 807 790 791 792 792 797 800 800 804 805 806 807 803 804 806 807 808 807 807 807 806 804 803 801 800 798 795 791 788 785 783 780
818 816 810 801 798 807 818 816 815 817 826 804 792 782 782 783 785 796 804 807 809 810 811 809 807 805 805 805 806 806 804 803 802 800 798 796 794 793 791 788 784 781 778 775
816 831 811 805 803 805 806 808 807 818 811 812 790 789 787 788 801 806 810 813 813 811 810 809 808 807 806 805 803 800 799 798 796 794 793 790 788 785 784 782 780 779 774 770
818 827 836 829 810 808 807 806 802 798 797 792 791 790 799 807 810 814 816 817 814 811 811 811 810 808 806 805 802 800 796 793 790 787 786 785 782 779 777 776 773 771 768 764
818 821 832 809 814 819 817 798 794 793 791 793 799 803 813 814 818 819 820 817 815 812 813 810 808 806 803 799 794 789 786 786 785 782 781 778 775 773 772 769 767 764 762 759
811 825 820 816 823 815 792 797 797 796 804 802 807 812 818 819 818 818 817 812 811 811 812 810 806 802 800 796 789 785 783 781 779 778 775 773 771 768 767 764 761 758 756 754
817 812 819 822 802 783 783 797 801 802 799 813 814 816 817 817 816 811 807 811 813 813 812 808 804 799 795 790 786 782 778 776 774 773 770 766 765 763 761 758 755 752 750 747
822 817 817 812 817 799 795 807 809 809 802 817 822 820 819 819 816 807 813 814 811 810 807 803 799 795 791 786 782 777 773 770 768 767 764 762 760 757 754 751 748 745 743 740
826 823 816 812 808 790 802 808 809 814 814 818 819 820 820 820 818 812 813 811 809 806 803 800 795 791 787 783 778 773 769 766 764 761 759 756 752 750 746 743 741 738 735 733
807 811 812 807 805 804 808 810 811 813 815 816 817 818 818 816 814 812 809 806 804 800 797 794 790 786 781 777 774 768 764 761 758 755 752 748 745 741 738 736 732 730 728 725
810 796 794 797 795 807 810 814 815 816 817 817 816 815 814 812 809 806 803 801 798 795 791 787 783 777 773 769 766 761 757 754 751 748 744 740 736 732 730 727 724 721 719 717
804 813 808 806 798 802 804 809 811 814 816 816 814 811 809 806 802 800 797 794 791 787 783 779 774 770 764 761 757 752 748 745 742 738 734 731 728 724 721 719 716 712 709 706
808 814 809 806 805 806 809 810 812 812 812 811 808 805 802 799 796 793 789 787 784 780 775 771 766 761 757 753 748 744 741 738 734 730 727 723 720 716 712 709 706 703 699 698
808 804 805 802 802 807 809 810 811 810 808 805 802 799 797 795 790 788 785 781 776 771 767 762 758 754 749 745 741 736 732 730 727 723 718 715 711 707 704 701 695 693 690 688